Location: Unspecified
(54.1055°N, 0.0000°E)
Time: 05:28:04
(UTC+00:00)

Daily predictions for brighter satellites

Satellite Brightness Start Highest point End
(mag) Time Altitude Azimuth Time Altitude Azimuth Time Altitude Azimuth
USA 281 3.5 00:08:49 52° E 00:10:08 63° NE 00:16:37 10° NNW
SJ 16-02 3.5 00:08:51 10° N 00:12:06 20° NE 00:12:36 20° ENE
Cosmos 921 Rocket 4.4 00:10:23 10° NNW 00:13:31 37° NNE 00:13:31 37° NNE
Cosmos 1125 Rocket 4.0 00:16:01 55° NNW 00:16:01 55° NNW 00:20:34 10° NNE
Cosmos 1140 Rocket 4.0 00:17:25 10° NNW 00:21:37 57° N 00:21:37 57° N
Cosmos 2297 3.9 00:21:01 10° NNW 00:25:55 65° NW 00:25:55 65° NW
ATLAS 5 CENTAUR R/B 3.6 00:24:06 10° NW 00:26:53 21° NNE 00:30:04 10° ENE
Cosmos 1816 Rocket 4.5 00:20:50 10° N 00:27:08 74° ENE 00:27:12 74° E
Cosmos 1943 Rocket 4.5 00:25:32 10° WNW 00:26:42 12° W 00:26:42 12° W
Cosmos 1605 Rocket 4.3 00:29:35 54° WNW 00:29:39 54° WNW 00:35:38 10° N
NOSS 3-4 (A) 3.4 00:31:16 69° NE 00:31:16 69° NE 00:36:38 10° NE
NOSS 3-4 (C) 3.4 00:31:43 70° NE 00:31:43 70° NE 00:37:08 10° NE
Cosmos 2237 Rocket 2.7 00:34:15 53° WNW 00:34:28 53° NW 00:40:04 10° NNE
Cosmos 1980 4.2 00:34:12 49° WNW 00:34:29 50° NW 00:40:00 10° NNE
USA 267 3.4 00:31:45 10° ENE 00:37:28 56° ESE 00:37:28 56° ESE
CZ-2C R/B 3.3 00:41:30 49° WNW 00:41:30 49° WNW 00:46:02 10° NNW
Cosmos 967 Rocket 4.4 00:34:31 10° NW 00:41:03 89° WSW 00:41:03 89° WSW
Cosmos 2016 Rocket 4.4 00:41:45 52° ESE 00:42:09 53° E 00:48:19 10° NNE
Cosmos 371 Rocket 4.2 00:40:19 10° NNW 00:44:45 45° NE 00:44:45 45° NE
Okean 2 Rocket 4.4 00:46:36 37° NE 00:46:36 37° NE 00:49:30 10° NNE
CZ-2C R/B 3.5 00:41:36 10° N 00:45:28 53° NNW 00:45:28 53° NNW
Cosmos 1459 Rocket 3.9 00:46:28 80° ESE 00:46:36 81° E 00:53:01 10° NNE
Cosmos 2100 Rocket 3.8 00:49:36 89° N 00:49:36 89° N 00:55:45 10° N
COSMOS 2428 4.4 00:47:15 21° WNW 00:49:47 28° NW 00:54:43 10° NNE
Meteor 2-3 Rocket 3.8 00:48:06 10° NNW 00:53:19 75° NNW 00:53:19 75° NNW
NOSS 3-1 (C) 3.7 00:48:58 10° NW 00:55:38 83° SW 00:57:28 57° SE
Cosmos 2298 Rocket 4.3 00:56:17 67° N 00:56:17 67° N 01:01:00 10° NNE
BREEZE-M R/B 4.4 00:57:19 52° ESE 00:57:19 52° ESE 01:01:52 10° E
ATLAS 3B R/B 4.1 00:49:15 10° WNW 00:56:40 41° N 01:03:59 10° ENE
Cosmos 2173 Rocket 3.8 00:58:28 82° W 00:58:28 82° W 01:04:36 10° N
IDEFIX/ARIANE 42P 3.9 00:54:40 10° NNE 00:59:08 29° E 00:59:14 29° E
ARIANE 6 FM1 Upper Stage 4.4 01:01:16 28° N 01:01:16 28° N 01:04:44 10° NE
Cosmos 2369 Rocket 3.3 01:03:05 10° NW 01:06:27 32° WNW 01:06:27 32° WNW
Cosmos 1802 Rocket 3.9 01:21:30 74° SW 01:22:01 79° WNW 01:28:25 10° N
Cosmos 2228 4.2 01:26:15 37° ENE 01:26:15 37° ENE 01:29:34 10° NNE
Cosmos 1943 3.3 01:25:57 62° ESE 01:25:57 62° ESE 01:31:34 10° NE
Cosmos 407 Rocket 3.9 01:21:06 10° NNW 01:25:06 52° NW 01:25:06 52° NW
Cosmos 1892 Rocket 4.4 01:22:29 10° NNW 01:25:39 46° NNW 01:25:39 46° NNW
Cosmos 1626 Rocket 4.5 01:27:13 10° N 01:31:19 42° ENE 01:31:19 42° ENE
Cosmos 1697 Rocket 4.5 01:27:14 10° NNW 01:32:15 31° NE 01:37:13 10° E
MSX 4.2 01:27:17 10° NNE 01:32:55 52° E 01:33:43 49° SE
Okean 1 Rocket 3.9 01:34:05 44° NNW 01:34:05 44° NNW 01:37:16 10° N
Lacrosse 5 rocket 3.5 01:38:37 15° ENE 01:38:37 15° ENE 01:39:20 10° ENE
SL-16 R/B 2.4 01:36:11 55° WNW 01:36:40 57° NW 01:42:17 10° NNE
Meteor 2-1 Rocket 4.3 01:37:37 69° W 01:37:58 71° WNW 01:43:54 10° N
SL-08 R/B 4.3 01:39:08 72° SW 01:39:42 79° WNW 01:45:52 10° N
NOSS 3-1 (A) 3.8 01:33:50 10° NW 01:40:34 88° SW 01:49:07 10° SE
RESURS DK-1 3.9 01:41:19 29° NNW 01:41:19 29° NNW 01:44:17 10° NNE
Cosmos 2061 Rocket 3.9 01:40:34 66° S 01:41:29 84° E 01:47:44 10° NNE
Cosmos 1725 Rocket 4.0 01:41:30 60° WSW 01:42:11 65° WNW 01:48:30 10° N
NPP 4.1 01:39:08 10° NNE 01:44:24 50° E 01:45:14 46° SE
COSMOS 2455 2.7 01:38:49 10° NW 01:44:53 87° SW 01:46:22 54° SE
ACS3 Solar Sail 1.6 01:39:43 10° NNE 01:45:41 87° ESE 01:46:32 68° S
Cosmos 1782 4.1 01:48:38 34° NNE 01:48:38 34° NNE 01:50:51 10° NNE
SJ 16-02 2.4 01:46:23 10° NNW 01:49:04 37° NW 01:49:04 37° NW
USA 281 3.8 01:55:39 37° W 01:55:39 37° W 02:01:03 10° NW
Cosmos 1656 3.6 01:49:53 10° NNW 01:55:21 77° ENE 01:57:28 38° SE
Cosmos 332 Rocket 4.4 01:52:45 10° NNW 01:57:33 55° ENE 01:59:52 28° ESE
Cosmos 2251 Rocket 3.4 01:56:51 10° NNW 02:02:05 73° WSW 02:02:05 73° WSW
Resurs 1-4 Rocket 3.6 01:58:02 10° NNE 02:02:43 30° E 02:05:13 21° SE
H-2A R/B 3.3 02:02:40 39° E 02:03:10 41° ENE 02:06:43 10° N
Cosmos 1455 Rocket 3.5 02:03:57 54° NW 02:03:57 54° NW 02:07:44 10° N
Cosmos 1190 Rocket 3.9 01:59:36 10° NNW 02:04:55 74° WSW 02:05:00 74° WSW
Tsikada Rocket 4.3 01:59:10 10° NNW 02:05:15 47° W 02:05:41 46° WSW
Cosmos 1758 Rocket 3.5 02:03:19 10° N 02:07:24 76° NNE 02:07:24 76° NNE
Cosmos 1544 Rocket 4.1 02:08:05 49° ESE 02:08:32 51° E 02:12:51 10° NNE
ATLAS 5 CENTAUR R/B 2.3 02:05:59 10° NW 02:09:41 49° NNE 02:14:13 10° ESE
DMSP B5D2-2 4.3 02:10:17 33° SE 02:12:37 68° ENE 02:17:47 10° NNW
Cosmos 2233 Rocket 4.2 02:14:27 48° WSW 02:15:41 55° WNW 02:21:54 10° N
CZ-2D R/B 3.3 02:14:31 10° NNE 02:19:18 36° E 02:21:58 22° SSE
Cosmos 2237 Rocket 4.3 02:16:01 11° WNW 02:19:50 20° NNW 02:23:59 10° NNE
Meteor 1-22 4.5 02:15:52 10° NNW 02:21:25 79° W 02:22:39 55° S
USA 267 3.3 02:14:54 10° ENE 02:21:29 80° NNW 02:24:48 32° W
NOSS 3-4 (A) 4.4 02:18:39 21° WNW 02:22:02 40° NNW 02:28:06 10° NE
NOSS 3-4 (C) 4.4 02:19:06 21° WNW 02:22:30 40° NNW 02:28:36 10° NE
Cosmos 1464 Rocket 4.2 02:20:08 33° SSE 02:22:59 64° E 02:29:06 10° NNE
Meteor 1-25 Rocket 4.5 02:17:11 10° N 02:23:02 71° ENE 02:27:01 21° SSE
ADEOS II 3.6 02:19:13 10° NNE 02:23:50 30° E 02:27:21 15° SSE
Aureole 3 Rocket 3.5 02:25:14 40° NNW 02:25:14 40° NNW 02:28:11 10° N
Cosmos 1818 3.8 02:20:03 10° NW 02:25:31 69° NE 02:30:58 10° SE
Cosmos 44 3.6 02:31:59 51° W 02:33:09 68° NW 02:38:31 10° NE
USA 229 DEB 4.5 02:26:22 10° NW 02:33:22 59° NNE 02:41:15 10° ESE
USA 229 4.5 02:26:25 10° NW 02:33:26 59° NNE 02:41:19 10° ESE
Cosmos 2360 4.1 02:28:00 10° NW 02:33:42 71° WSW 02:37:02 25° SSE
Cosmos 676 Rocket 3.9 02:29:47 10° NNW 02:35:05 68° WSW 02:36:32 46° S
ATLAS 2AS CENTAUR R/B 4.5 02:33:39 10° SSE 02:38:43 22° ESE 02:43:45 10° ENE
IDEFIX/ARIANE 42P 2.8 02:33:51 10° N 02:38:53 55° WNW 02:39:55 46° WSW
COSMOS 2441 4.3 02:34:07 10° NNE 02:39:00 85° ESE 02:40:15 50° S
BREEZE-M DEB (TANK) 4.3 02:39:46 22° SE 02:39:46 22° SE 02:42:28 10° E
Cosmos 1933 3.4 02:39:14 57° SE 02:39:40 63° E 02:43:27 10° NNE
GP-B 2.9 02:35:26 10° N 02:39:50 83° W 02:40:30 63° SSW
Cosmos 1420 Rocket 3.9 02:38:37 53° SW 02:39:51 78° WNW 02:45:09 10° NNE
NOAA 11 4.2 02:34:23 10° NNE 02:39:52 81° ESE 02:41:55 40° S
ARIANE 6 FM1 Upper Stage 4.4 02:37:34 10° NW 02:41:07 29° NNE 02:44:39 10° ENE
Spot 2 4.1 02:39:54 37° SSE 02:41:39 85° ENE 02:46:20 10° NNW
Cosmos 1602 Rocket 3.4 02:37:22 10° NNW 02:41:47 80° W 02:42:27 62° S
Nadezhda 4 Rocket 3.9 02:35:45 10° NNW 02:42:02 78° W 02:45:20 29° S
Cosmos 1428 Rocket 4.4 02:35:43 10° NNW 02:42:03 86° W 02:46:13 23° S
Cosmos 1825 Rocket 4.0 02:38:02 10° N 02:42:20 58° ENE 02:45:09 20° SSE
Cosmos 1833 Rocket 4.0 02:39:51 18° SSE 02:43:13 32° ESE 02:48:09 10° NE
Cosmos 1603 3.6 02:42:05 47° SW 02:43:48 81° WNW 02:49:31 10° NNE
Cosmos 2098 Rocket 3.7 02:41:44 33° SSE 02:43:49 65° E 02:49:11 10° NNE
Cosmos 2056 Rocket 3.6 02:42:22 42° S 02:44:12 73° ESE 02:49:37 10° NNE
Cosmos 1954 Rocket 4.3 02:40:20 10° NW 02:45:20 44° WSW 02:45:21 44° WSW
ATLAS 3B R/B 3.6 02:41:07 10° NW 02:48:55 58° NNE 02:56:25 10° ESE
MOZ.5/SAFIR/RUBIN 5/SL-8 4.0 02:49:46 46° WSW 02:49:53 46° W 02:54:26 10° NNW
Cosmos 1850 Rocket 4.1 02:44:38 10° NNW 02:49:54 74° ENE 02:55:04 10° SSE
Cosmos 2151 3.2 02:48:30 10° NNW 02:52:22 49° W 02:52:22 49° W
H-2A R/B 2.7 02:51:07 10° NNE 02:55:53 49° E 02:59:20 19° SSE
ALOS 2.5 02:52:27 10° NNE 02:57:01 64° ESE 02:59:11 30° S
Cosmos 1624 Rocket 3.9 02:55:25 40° SSW 02:57:23 87° ESE 03:02:38 10° NNE
BREEZE-M DEB (TANK) 3.8 02:55:57 36° SW 02:57:24 45° S 03:02:54 10° ESE
Cosmos 2195 Rocket 4.4 02:52:59 10° NNW 02:59:20 83° W 03:05:03 13° S
Cosmos 2228 4.1 03:02:29 28° WNW 03:02:40 28° WNW 03:06:21 10° N
Cosmos 1092 Rocket 4.0 02:59:24 10° N 03:05:41 84° E 03:11:51 10° SSE
ADEOS Rocket 3.4 02:59:43 10° NNE 03:06:22 70° WNW 03:10:37 27° SW
Cosmos 1943 4.2 03:07:42 24° W 03:10:19 36° NW 03:15:34 10° NNE
FENGYUN 3A 4.2 03:07:15 10° N 03:12:21 43° WNW 03:14:26 30° WSW
Lacrosse 5 rocket 1.2 03:11:54 32° NW 03:13:06 56° NNE 03:16:20 10° E
Cosmos 1437 Rocket 2.6 03:13:31 37° S 03:14:40 66° E 03:18:04 10° NNE
Cosmos 1697 Rocket 2.6 03:11:07 10° NW 03:16:47 78° WSW 03:22:24 10° SSE
Cosmos 2026 Rocket 3.9 03:12:26 10° NNW 03:18:33 73° W 03:24:43 10° S
SL-19 R/B 4.3 03:15:18 10° NNE 03:20:58 83° ESE 03:25:01 19° SSW
Cosmos 968 Rocket 3.6 03:16:10 10° NW 03:21:08 49° WSW 03:25:53 11° S
SL-16 R/B 4.1 03:18:01 11° WNW 03:22:00 21° NNW 03:26:15 10° NNE
Envisat 3.0 03:19:31 10° N 03:24:34 66° WNW 03:27:20 27° SW
Cosmos 1371 Rocket 4.1 03:22:12 30° SW 03:24:42 64° WNW 03:29:56 10° NNE
ACS3 Solar Sail 3.1 03:22:57 10° N 03:27:31 24° NW 03:30:09 18° W
Cosmos 1606 Rocket 3.5 03:25:08 26° SSW 03:27:38 81° WNW 03:32:06 10° N
Cosmos 1980 Rocket 2.5 03:23:04 10° NNW 03:28:47 70° NE 03:34:28 10° SE
COSMOS 2455 4.0 03:25:36 10° WNW 03:29:24 22° W 03:29:24 22° W
SL-16 R/B 2.6 03:25:48 10° SSE 03:32:02 85° ENE 03:38:20 10° NNW
Meteor 2-10 4.0 03:27:27 10° NNW 03:32:32 60° W 03:37:47 10° S
Cosmos 1805 3.2 03:29:34 10° NNW 03:32:40 39° W 03:32:50 39° WSW
Cosmos 1110 Rocket 4.1 03:29:20 20° SSW 03:33:01 77° ESE 03:38:19 10° NNE
Cosmos 1741 Rocket 4.0 03:29:12 10° NNW 03:34:23 58° WSW 03:39:34 10° S
SL-24 R/B 4.4 03:29:34 10° N 03:34:26 88° E 03:39:26 10° S
Cosmos 1331 Rocket 4.1 03:31:29 18° SSW 03:35:23 76° ESE 03:40:41 10° NNE
Cosmos 1634 Rocket 4.1 03:29:27 10° S 03:35:42 81° E 03:41:56 10° NNE
H-2A R/B 3.5 03:37:38 23° W 03:37:38 23° W 03:40:22 10° NW
Okean 1-7 Rocket 4.1 03:33:35 10° NNW 03:37:38 37° W 03:39:27 26° SW
Cosmos 292 Rocket 4.1 03:35:09 10° NW 03:39:39 41° WSW 03:44:09 10° S
Cosmos 1908 4.0 03:37:48 10° NNW 03:38:30 17° NW 03:38:30 17° NW
Cosmos 1536 3.3 03:36:17 10° N 03:39:57 57° ENE 03:43:34 10° SSE
NOSS 8 (H) 4.4 03:40:25 30° WSW 03:42:04 74° NW 03:45:12 10° NE
Resurs 1-4 Rocket 2.3 03:37:34 10° N 03:42:46 54° WNW 03:46:16 20° SW
AQUA 4.2 03:40:31 10° NNE 03:45:12 63° ESE 03:49:50 10° S
Cosmos 2082 Rocket 4.4 03:41:21 10° SSE 03:45:44 23° ESE 03:50:07 10° NE
Cosmos 1452 Rocket 3.8 03:41:09 13° SSW 03:45:50 69° ESE 03:51:05 10° NNE
Cosmos 1076 Rocket 3.7 03:42:14 10° NNW 03:46:25 50° W 03:50:30 11° S
ATLAS 5 CENTAUR R/B 2.0 03:47:58 10° WNW 03:51:50 39° SW 03:56:32 10° SSE
Cosmos 1766 2.7 03:52:09 10° N 03:55:23 86° E 03:58:36 10° SSE
BREEZE-M DEB (TANK) 3.8 03:41:20 10° W 03:55:32 60° S 03:59:27 10° ESE
Cosmos 2360 Rocket 4.4 03:51:06 10° NNW 03:55:49 26° NNE 04:00:31 10° E
Cosmos 1953 Rocket 3.8 03:51:48 10° NNW 03:56:06 49° W 04:00:24 10° S
Cosmos 2322 Rocket 4.4 03:53:32 10° NNW 03:58:19 27° NE 04:03:05 10° E
ARGOS 3.3 03:53:22 10° NNE 03:58:49 77° ESE 04:04:13 10° S
CZ-2D R/B 2.5 03:54:27 10° N 03:59:24 45° WNW 04:03:13 16° SW
SL-16 R/B 3.8 03:56:12 10° NNW 04:01:31 39° NE 04:06:48 10° ESE
Meteor 1-28 Rocket 3.4 03:58:59 10° SSE 04:02:13 60° ENE 04:05:29 10° N
ADEOS II 2.3 03:58:33 10° N 04:03:39 53° WNW 04:08:10 13° SW
USA 267 3.5 03:57:50 10° E 04:04:22 72° N 04:10:54 10° WNW
Meteor 1-26 Rocket 4.1 04:01:23 10° SSW 04:06:55 88° WNW 04:12:22 10° NNE
Cosmos 1726 Rocket 4.0 04:03:49 14° SW 04:07:30 48° WNW 04:11:53 10° N
Cosmos 1818 4.2 04:03:58 10° WNW 04:08:46 32° WSW 04:13:32 10° S
UNK 4.1 04:04:19 10° SSE 04:08:53 69° ENE 04:13:29 10° NNW
SL-08 ROCKET BODY 4.4 04:05:16 10° NNW 04:11:02 60° W 04:16:50 10° S
Geosat 4.4 04:06:47 10° SE 04:11:45 67° NE 04:16:44 10° NNW
Okean 1 3.6 04:11:30 16° SW 04:13:59 38° WNW 04:17:19 10° N
ARIANE 6 FM1 Upper Stage 2.8 04:16:40 10° NW 04:20:39 73° NE 04:24:36 10° ESE
H-2A R/B 1.9 04:16:27 10° NNE 04:20:40 73° WNW 04:24:46 10° SSW
USA 229 DEB 4.0 04:17:19 10° NW 04:24:35 62° SW 04:32:37 10° SSE
USA 229 4.0 04:17:23 10° NW 04:24:38 63° SW 04:32:42 10° SSE
KORONAS-FOTON 3.5 04:22:48 10° S 04:26:07 83° E 04:29:29 10° NNE
Cosmos 1833 Rocket 2.9 04:21:31 11° SW 04:26:52 60° NW 04:32:26 10° NNE
Cosmos 1707 1.9 04:24:30 10° SSW 04:27:24 66° WNW 04:30:21 10° N
ATLAS 2AS CENTAUR R/B 2.9 04:21:44 10° SW 04:28:40 76° SE 04:35:30 10° NE
Cosmos-2242 3.2 04:24:42 10° SSW 04:28:50 50° WNW 04:32:59 10° N
Cosmos 2279 Rocket 4.1 04:24:37 10° SSW 04:30:44 63° WNW 04:36:57 10° N
Iridium 4 Rocket 2.9 04:27:16 10° S 04:31:25 81° W 04:35:47 10° N
Cosmos 2333 Rocket 3.3 04:26:15 10° NNW 04:31:46 50° NE 04:37:15 10° ESE
ALOS 3.6 04:30:01 10° N 04:33:34 23° WNW 04:37:07 10° WSW
H-2A R/B 2.9 04:30:45 10° N 04:35:03 31° WNW 04:39:24 10° WSW
Cosmos 2058 Rocket 3.4 04:32:08 10° SSW 04:36:29 49° WNW 04:40:51 10° N
Meteor 1-14 Rocket 4.3 04:31:03 10° NNW 04:37:00 75° W 04:42:48 10° S
Cosmos 2219 Rocket 4.2 04:32:52 10° NNW 04:37:45 29° NE 04:42:38 10° E
Cosmos 2221 2.7 04:35:02 10° S 04:39:10 72° E 04:43:19 10° NNE
ATLAS 3B R/B 3.0 04:32:14 10° NW 04:39:58 64° SW 04:47:17 10° SSE
Cosmos 1470 2.3 04:36:41 10° NNW 04:40:04 71° W 04:43:25 10° S
Meteor 2-2 Rocket 4.4 04:35:32 10° SSW 04:41:12 59° WNW 04:46:49 10° N
Cosmos 2369 3.7 04:36:10 10° NW 04:41:50 71° WSW 04:47:30 10° SSE
Meteor 2-6 Rocket 4.2 04:39:23 10° SSW 04:44:55 80° WNW 04:50:39 10° NNE
SWARM A 4.2 04:42:14 10° N 04:45:28 57° W 04:48:39 10° SSW
Meteor 1-11 Rocket 4.0 04:41:06 10° NNW 04:47:08 87° E 04:53:05 10° SSE
Lacrosse 5 rocket 1.0 04:46:36 10° WNW 04:49:46 49° SSW 04:52:58 10° SE
